Карточка аэропорта USTR

Внимание!
Информация на этой странице в стадии наполнения.
Если вы не увидели какой-то информации, или заметили неточность - пожалуйста сообщите нам!
Спасибо!
Команда RU-STAFF
Название аэропортаРощино
Название аэропорта (англ.)Roshschino
Превышение378 ft. (115.2 m.)
Координаты57°10.098', 65°19.002'
Высота перехода700m
Эшелон переходаFL040
Коды ответчика5101-5137
Зона ОрВДТюмень РПИ (USTV)
Данные METARUSTR 041900Z 04006MPS 9999 -SHSN DRSN FEW012 OVC022CB M09/M11 Q1035 R30/390035 R21/494030 TEMPO 05007G12MPS 2100 -SHSN BLSN
Проноз погоды (TAF)USTR 041821Z 0418/0518 04006G13MPS 3100 -SHSN DRSN BKN011CB TEMPO 0418/0421 05005MPS 1000 SHSN BR VV003 FM042100 05005MPS 3100 -SHSN BR BKN005 BKN011CB TEMPO 0421/0503 06004MPS 0300 FZFG VV002 FM050300 06003G08MPS 6000 FEW005 SCT020 BECMG 0511/0513 VRB01MPS
NOTAMshow/hide NOTAM
AWOS   TABLE

Информация о ВПП

ВПП Длина ВПП (м.) Покрытие Курс ВПП Частота ILS
033003Асфальтобетон34108.3
122704Асфальтобетон121 
213003Асфальтобетон214110.7
302704Асфальтобетон301 

Диспетчерские позиции

Позывной Наименование органа УВД Частота
USTR_R_APPТюмень-Круг126.100
USTR_GNDТюмень-Руление119.000
USTR_TWRТюмень-Старт118.200



Спутниковое изображение